STARLINK-1477 (45754 NORAD) Tracking and Keplerian Element Data

This shows tracking and keplerian element data for the satellite.

Feedback or suggestion? Click here.




ElementValue
Catalog45754
NameSTARLINK-1477
Epoch Orbit958
Epoch Day219.16667824
Epoch Year2020
RAAN32.7279
Inclination53.0006
Eccentricity0.000167
Argument of Perigee28.6829
Mean Anonmoly114.3677
Mean Motion15.62742067
Decay Rate-0.00015267
L11 45754U 20038AA 20219.16667824 -.00015267 00000-0 -16126-3 0 9994
L22 45754 53.0006 32.7279 0001670 28.6829 114.3677 15.62742067 9581

Live tracking and technical data element details for STARLINK-1477 (NORAD 45754). STARLINK-1477 can be tracked NOW for your location showing map with azimuth and elevation plus other details from your city location.

Track the satellite on the map from your city or location and see movement details for azimuth, elevation, latitude, longitude, range, height, and movement on the map or in text.







IsCatalogInMostPopularTable: catalog: 45754, numindb: 10
Update: records affected: 1



GetName: 45754 STARLINK-1477

Hit Count: updated at: Fri, 07 Aug 2020 23:24:02 GMT